Wind_Speed
31 35 38 36 33 32 33 39 41 44 46 46 47 45 45 43 45 43 44 42 42 37
27 29 28 31 33 32 34 33 35 38 41 45 45 42 41 42 41 41 45 46 43 42
27 27 28 28 28 27 30 32 34 34 38 42 40 39 41 37 41 38 42 44 38 41
23 25 26 25 26 29 30 31 34 32 35 39 39 37 37 38 38 37 40 40 39 42
16 15 19 19 22 26 29 30 34 33 34 36 38 39 38 39 38 39 36 37 39 40
15 11 8 5 1 3 6 11 10 18 23 28 29 32 33 35 35 36 38 41 39 41
22 20 17 15 13 8 10 8 6 9 6 8 4 2 5 8 12 16 16 17 23 29
27 26 23 21 18 18 18 18 15 15 14 13 13 15 13 12 12 15 14 15 16 19
27 26 26 24 22 22 22 20 18 18 16 15 17 15 13 13 11 12 14 17 15 18
26 26 26 24 22 23 23 18 18 20 16 18 18 19 16 14 13 14 14 16 18 21
27 24 26 27 25 25 22 22 22 22 19 18 19 23 25 22 18 17 16 17 17 18
22 22 25 25 26 26 23 24 24 23 21 21 21 22 25 24 22 19 20 20 20 19
19 21 23 23 26 23 24 25 24 24 22 19 22 23 24 26 25 22 23 22 23 22
19 22 20 24 23 23 25 24 25 24 25 26 26 27 27 28 27 26 26 25 27 28
Wind_Direction
241 223 223 223 220 217 219 226 234 235 237 238 238 238 235 235 237 236 238 237 236 234
243 229 225 224 228 224 228 230 234 235 243 238 238 236 234 233 233 236 242 242 240 239
242 237 238 239 234 230 229 230 232 235 241 242 238 235 234 233 235 234 239 242 240 239
237 239 236 235 241 240 238 233 235 245 243 244 242 237 234 234 236 236 237 240 240 240
219 234 232 236 248 252 247 256 252 251 246 241 247 244 240 240 237 238 241 239 238 239
107 110 103 112 245 237 240 237 235 241 249 250 245 247 249 246 245 246 249 250 249 240
76 85 84 84 71 77 64 66 54 51 98 49 46 273 301 291 271 264 272 281 282 264
71 80 81 79 74 73 78 69 75 69 56 68 56 31 20 11 356 345 331 313 294 293
65 72 74 72 66 68 67 65 57 66 55 52 43 22 23 1 349 342 343 330 322 319
57 61 70 69 65 61 60 60 57 56 50 42 34 25 19 360 347 345 344 334 335 325
60 54 67 71 63 65 62 58 52 51 45 41 28 21 16 6 2 355 349 349 346 341
52 51 59 61 65 62 62 60 55 49 45 39 29 21 18 13 9 359 355 352 354 355
38 45 48 59 63 58 59 59 56 51 44 34 34 29 21 16 14 1 355 353 355 355
64 61 58 60 61 58 57 55 52 49 42 36 29 23 16 13 11 3 356 355 353 354
Height
791 791 793 796 799 801 803 804 804 811 815 817 817 819 821 824 826 827 828 829 830 831
785 787 789 791 793 796 797 798 802 804 806 808 810 811 814 815 818 820 821 821 822 823
778 780 784 787 789 791 792 794 795 797 798 798 800 803 805 808 809 811 811 813 815 815
772 775 779 781 785 787 789 789 789 791 792 793 793 795 797 798 800 802 802 804 804 803
767 772 774 778 782 783 783 785 785 784 787 788 788 787 788 789 791 790 793 793 793 792
764 769 772 775 777 779 779 779 778 780 782 783 785 785 785 786 785 785 784 784 782 778
769 769 772 775 779 779 779 779 779 782 778 780 782 782 783 782 780 778 778 778 778 776
776 775 777 779 781 783 781 780 781 782 786 780 782 783 783 780 779 779 774 775 772 774
783 781 782 784 786 785 784 785 786 784 788 787 786 785 778 783 780 779 775 775 771 771
792 789 786 787 789 787 787 791 791 788 790 787 787 786 782 785 783 779 776 777 771 767
799 799 795 792 793 792 793 793 791 789 791 789 790 786 783 783 781 780 778 773 769 765
809 806 800 798 798 798 800 796 794 794 794 793 792 791 788 784 782 778 776 773 768 765
813 809 807 805 801 803 802 800 800 799 798 797 794 791 789 785 780 778 773 770 767 764
817 815 813 808 808 807 805 804 803 802 800 797 793 790 788 785 781 779 775 770 766 761